Location: La Rougeraie
(47.7203°N, 1.1477°W)
Time: 13:02:04
(UTC+00:00)

Daily predictions for brighter satellites

Satellite Brightness Start Highest point End
(mag) Time Altitude Azimuth Time Altitude Azimuth Time Altitude Azimuth
CZ-4C R/B 2.7 17:13:13 10° NNE 17:16:22 69° ESE 17:19:30 10° S
PAYLOAD B 4.3 17:10:58 10° SSE 17:16:28 89° WSW 17:22:02 10° NNW
CZ-4B R/B 3.1 17:14:17 10° NE 17:16:36 17° E 17:18:52 10° SE
SL-24 R/B 4.1 17:16:30 10° SSE 17:20:45 64° ENE 17:25:15 10° N
CZ-4C R/B 2.1 17:16:25 10° SW 17:21:22 83° SE 17:27:23 10° NE
CZ-4B R/B 3.2 17:19:05 10° SSE 17:24:35 78° ENE 17:30:13 10° NNW
Tsikada Rocket 4.0 17:18:35 10° S 17:24:54 72° E 17:31:09 10° NNE
USA 234 3.9 17:19:52 10° ENE 17:25:52 40° N 17:31:52 10° WNW
FengYun 1-2 T 4.2 17:20:27 10° SSE 17:25:55 67° ENE 17:31:30 10° N
Cosmos 1400 Rocket 2.9 17:22:37 10° NNW 17:26:47 87° WSW 17:30:52 10° S
CZ-2D R/B 4.2 17:25:47 10° SE 17:29:01 26° ENE 17:32:15 10° N
Meteor 2-5 Rocket 4.1 17:24:56 10° SSE 17:30:10 43° E 17:35:23 10° NNE
SL-14 R/B 3.8 17:27:09 10° SSE 17:30:42 36° E 17:34:18 10° NNE
Cosmos 972 4.4 17:25:26 10° NNW 17:30:52 73° ENE 17:35:49 10° SSE
Cosmos 1025 Rocket 3.4 17:27:14 10° SSW 17:31:31 69° W 17:35:53 10° N
Cosmos 1603 3.8 17:25:52 10° NNW 17:31:32 60° ENE 17:37:10 10° SE
Cosmos 2297 Rocket 3.7 17:28:56 10° WSW 17:33:57 32° NW 17:39:00 10° NNE
Envisat 4.4 17:30:39 10° S 17:35:28 43° W 17:40:19 10° NNW
COSMOS 2455 4.2 17:32:53 10° SSE 17:36:55 19° ESE 17:40:26 12° ENE
KORONAS-FOTON 4.2 17:33:43 10° SSW 17:37:36 68° W 17:41:32 10° N
ATLAS 3B R/B 2.8 17:31:24 10° NW 17:38:22 90° NNE 17:45:37 10° SE
Cosmos 1486 Rocket 4.1 17:35:42 10° SSW 17:40:57 84° WNW 17:46:14 10° NNE
Cosmos 1606 Rocket 3.9 17:39:19 10° N 17:43:28 41° ENE 17:47:38 10° SSE
Cosmos 2082 4.5 17:37:54 10° SW 17:43:30 53° WNW 17:49:06 10° NNE
Cosmos 968 Rocket 3.7 17:39:06 10° SSW 17:44:12 75° WNW 17:49:21 10° NNE
YAOGAN 1 3.6 17:41:12 10° ESE 17:44:38 24° ENE 17:48:05 10° NNE
H-2A R/B 2.2 17:41:56 10° NNE 17:46:27 87° WNW 17:50:52 10° SSW
H-2A R/B 3.6 17:44:48 10° S 17:48:37 46° W 17:52:36 10° NNW
Cosmos 1626 2.0 17:45:41 10° S 17:49:22 81° E 17:53:05 10° NNE
CZ-2C R/B 3.4 17:45:06 10° SE 17:50:05 47° ENE 17:55:21 10° N
Cosmos 1939 Rocket 2.9 17:46:28 10° SSE 17:50:33 67° ENE 17:54:39 10° N
Cosmos 1953 4.4 17:47:02 10° NNW 17:50:34 31° W 17:54:05 10° SSW
CSL-04 DEB 4.4 17:51:07 10° NNE 17:55:22 66° ESE 17:59:29 10° S
SKYMED 2 3.9 17:51:55 10° NNE 17:56:07 46° E 18:00:17 10° S
CZ-4 R/B 2.1 17:53:01 10° SE 17:56:42 33° ENE 18:00:22 10° N
MOS 1 Rocket 3.7 17:53:41 10° NNE 17:57:42 35° E 18:01:38 10° SSE
ATLAS 5 CENTAUR R/B 1.6 17:53:58 10° SSW 17:57:52 56° SE 18:01:05 17° NE
BREEZE-M DEB (TANK) 3.5 17:56:18 10° WNW 18:00:09 40° SW 18:02:21 10° SE
YAOGAN 3 4.5 17:57:14 10° SSE 18:01:35 73° ENE 18:05:57 10° N
CREW DRAGON DEMO-1 DEB 3.6 17:59:17 10° WNW 18:02:00 36° N 18:03:09 25° NE
Meteor 2-10 Rocket 4.0 17:58:38 10° N 18:03:57 42° ENE 18:09:03 10° SE
Abrixas rocket 4.1 18:05:07 10° W 18:07:16 21° SSW 18:09:22 10° SSE
Feng Yun 1-1 Rocket 4.1 18:01:53 10° SSE 18:07:17 82° ENE 18:12:50 10° NNW
Cosmos 2058 Rocket 3.6 18:03:54 10° N 18:08:06 38° ENE 18:12:18 10° SE
Cosmos 1503 Rocket 4.1 18:02:55 10° SSW 18:08:17 85° WNW 18:13:43 10° NNE
Cosmos 2228 2.9 18:04:11 10° N 18:08:28 82° ENE 18:12:44 10° S
Cosmos 1315 Rocket 2.8 18:06:06 10° NNW 18:10:05 86° W 18:14:04 10° S
SJ 16-02 3.3 18:07:42 10° SE 18:08:46 13° ESE 18:08:46 13° ESE
H-2A R/B 2.3 18:06:41 10° SE 18:11:18 41° ENE 18:16:03 10° N
Cosmos 2263 Rocket 2.2 18:05:42 10° SSW 18:11:23 87° ESE 18:17:05 10° NNE
USA-17 4.5 18:08:12 10° SW 18:11:53 72° NW 18:13:39 24° NNE
SAR-Lupe-4 4.3 18:12:53 28° ENE 18:13:43 32° E 18:16:58 10° SSE
EXPRESS MD2 4.3 18:04:51 10° WNW 18:13:51 86° NNE 18:16:49 22° ESE
Okean 1-7 Rocket 4.3 18:10:01 10° SSE 18:14:00 32° E 18:16:13 21° NE
Cosmos 1455 4.3 18:12:52 10° NNE 18:13:18 12° NNE 18:13:18 12° NNE
Meteor 1-24 Rocket 3.5 18:11:06 10° S 18:16:30 81° E 18:21:49 10° NNE
Cosmos 1300 3.0 18:14:37 10° NNW 18:18:26 67° W 18:22:13 10° S
Cosmos 1689 Rocket 3.6 18:22:29 22° SE 18:22:29 22° SE 18:23:51 10° SSE
NOSS 3-4 (A) 4.5 18:18:41 10° WSW 18:24:15 39° NW 18:29:30 13° NNE
NOSS 3-4 (C) 4.5 18:18:47 10° WSW 18:24:21 39° NW 18:29:36 13° NNE
GENESIS II 4.1 18:20:52 10° SSW 18:24:53 80° SE 18:26:42 31° NE
SAR-Lupe-1 4.4 18:24:36 38° ENE 18:25:14 43° E 18:28:38 10° S
Cosmos 1943 3.7 18:21:56 10° NNW 18:27:32 62° WSW 18:33:05 10° S
Helios 1A Rocket 3.0 18:26:54 10° SSE 18:30:54 52° ENE 18:34:58 10° N
Cosmos 1726 Rocket 3.6 18:27:22 10° NNW 18:31:44 81° W 18:36:06 10° S
USA 267 4.0 18:29:51 26° E 18:32:26 34° SE 18:38:15 10° SSW
SJ-11-01 4.3 18:28:44 10° SSE 18:33:20 57° ENE 18:37:57 10° N
ARGOS 3.3 18:28:52 10° SE 18:33:58 48° ENE 18:39:08 10° N
CSL-04 Debris 4.2 18:30:07 10° SE 18:35:19 51° ENE 18:40:32 10° N
Cosmos 2279 Rocket 4.2 18:29:30 10° NNW 18:35:46 73° W 18:41:59 10° S
Lacrosse 5 2.2 18:31:23 10° NW 18:36:17 47° NNE 18:37:40 37° ENE
Cosmos 773 Rocket 4.2 18:32:56 10° NNW 18:38:05 70° WSW 18:43:11 10° SSE
Cosmos 2082 Rocket 4.3 18:36:36 10° N 18:37:45 11° NNE 18:37:45 11° NNE
Okean-O 2.5 18:35:42 10° SSE 18:40:07 83° ENE 18:44:36 10° NNW
ATLAS 2AS CENTAUR R/B 3.8 18:34:15 10° WSW 18:41:53 47° NW 18:48:02 16° NNE
USA 281 4.5 18:42:04 20° NE 18:42:04 20° NE 18:46:28 10° N
CZ-2C R/B 3.5 18:43:09 31° ESE 18:43:09 31° ESE 18:47:14 10° SSE
Cosmos 1833 Rocket 4.4 18:40:03 10° N 18:42:29 16° NNE 18:42:29 16° NNE
COSMO-SKYMED 1 3.1 18:39:57 10° N 18:44:15 58° WNW 18:48:30 10° SSW
ERS-2 2.2 18:46:37 30° N 18:48:17 73° WNW 18:51:54 10° SSW
Okean O Rocket 4.4 18:45:39 10° SW 18:48:53 20° W 18:52:08 10° NW
CZ-4B R/B 3.1 18:45:48 10° N 18:48:55 33° WNW 18:51:58 10° SW
RESURS DK-1 4.0 18:45:43 10° WSW 18:49:26 31° NW 18:52:07 16° N
Cosmos 158 Rocket 4.2 18:45:46 10° NNW 18:50:53 47° ENE 18:51:25 46° E
BREEZE-M DEB (TANK) 3.6 18:50:31 10° WNW 18:51:44 27° WNW 18:51:44 27° WNW
Cosmos 1538 Rocket 4.1 18:56:51 10° NNW 19:02:02 75° WSW 19:07:11 10° SSE
PSLV R/B 4.3 19:02:51 27° N 19:05:01 65° WNW 19:09:11 10° SSW
Cosmos 1844 Rocket 2.7 19:01:38 10° S 19:07:08 55° ESE 19:07:13 55° ESE
Meteor 2-1 Rocket 4.1 19:02:01 10° N 19:07:40 87° E 19:13:11 10° S
USA 234 3.3 19:06:27 45° ENE 19:08:14 60° NNE 19:14:41 10° NW
CZ-4C R/B 3.7 19:05:59 10° W 19:10:41 29° NNW 19:13:43 20° NNE
Cosmos 1777 Rocket 4.3 19:06:08 10° SSW 19:11:21 66° WNW 19:14:04 29° N
Cosmos 489 Rocket 4.4 19:05:21 10° NNW 19:11:46 81° ENE 19:15:41 25° SSE
Cosmos 1092 Rocket 3.8 19:09:24 10° S 19:15:32 64° E 19:17:18 46° NE
Iridium 4 Rocket 3.7 19:10:20 10° N 19:23:28 - S 19:15:35 62° NE
Meteor 2-8 Rocket 4.3 19:10:17 10° N 19:16:18 61° ENE 19:16:18 61° ENE
YAOGAN 1 3.8 19:16:27 10° SSW 19:20:31 40° W 19:24:38 10° NNW
COSMOS 2455 2.8 19:16:04 10° SW 19:22:06 84° WNW 19:23:37 54° NNE
Cosmos 2344 4.3 19:14:28 10° NW 19:23:13 57° NE 19:26:40 43° E
CSL-04 Rocket 4.0 19:25:03 10° S 19:30:22 63° WSW 19:35:48 10° NNW
CZ-4 R/B 3.6 19:28:18 10° SSW 19:31:45 25° W 19:35:11 10° NW
Nadezhda 4 Rocket 4.5 19:30:04 10° SSW 19:36:14 59° WNW 19:42:23 10° N
ATLAS 5 CENTAUR R/B 3.3 19:39:13 10° W 19:42:38 26° NW 19:42:38 26° NW
SJ 16-02 3.2 19:43:59 10° SSW 19:45:49 24° SW 19:45:49 24° SW
H-2A R/B 3.9 19:46:39 10° SSW 19:50:53 28° W 19:55:13 10° NW
Cosmos 2263 Rocket 4.3 19:51:48 10° W 19:56:05 21° NW 19:58:48 16° N
NOSS 3-1 (C) 3.9 19:49:34 10° NW 19:56:35 71° NNE 19:56:35 71° NNE
USA 229 4.3 20:05:04 10° NW 20:10:35 53° N 20:10:35 53° N
USA 229 DEB 4.3 20:05:04 10° NW 20:10:37 53° N 20:10:37 53° N
USA 267 3.6 20:17:12 60° WSW 20:17:12 60° WSW 20:22:26 10° WSW
Lacrosse 5 3.7 20:14:27 10° WNW 20:16:54 27° WNW 20:16:54 27° WNW
CZ-2C R/B 4.2 20:24:39 31° WSW 20:24:39 31° WSW 20:27:51 10° SW
NOSS 3-1 (A) 4.5 20:20:20 10° NW 20:25:31 50° NNW 20:25:31 50° NNW
ATLAS 2AS CENTAUR R/B 4.4 20:28:30 10° WNW 20:34:50 25° NNW 20:35:28 25° N
USA 234 4.4 20:53:48 37° WNW 20:53:48 37° WNW 20:57:45 10° WNW
